User: anonymous   Login
Location: Unspecified
(0.0000°N, 0.0000°E)
Time: 10:00:04
(UTC+00:00)
Language:

STARLINK-34698 - Orbit

View from above orbital plane
View from above orbital plane
View from above satellite
View from above satellite

Ground track
Ground track

The orbit is defined by the following mean orbital elements,

1 66445U          26145.55964983 +.00000000 +00000-0 +39454-3 0 00003
2 66445  42.9987 200.5594 0001596 274.7210  85.3460 15.27582942    06
Epoch (UTC): 25 May 2026 13:25:53
Eccentricity: 0.0001596
inclination: 42.9987°
perigee height: 482 km
apogee height: 484 km
right ascension of ascending node: 200.5594°
argument of perigee: 274.7210°
revolutions per day: 15.27582942
mean anomaly at epoch: 85.3460°

The dashed part of the orbit path shows where the satellite is in the earth's shadow,  

DLR